 day,  time,  air_temp(C),  RH(%),  ground_temp10cm(C),  ground_temp20cm(C),  ground_temp40cm(C),  precipitation(mm/h),  Solar_Radiation(MJ/m2h),  lack, 
 04/12/01, 01:00,  -1.4,  67,   3.4,   5.0,   6.9,   0.0,  0.00, 
 04/12/01, 02:00,  -1.3,  63,   3.2,   4.9,   6.8,   0.5,  0.00, 
 04/12/01, 03:00,  -1.6,  65,   3.1,   4.9,   6.8,   0.0,  0.00, 
 04/12/01, 04:00,  -1.5,  66,   3.0,   4.8,   6.8,   0.5,  0.00, 
 04/12/01, 05:00,  -0.9,  58,   2.8,   4.7,   6.8,   0.0,  0.00, 
 04/12/01, 06:00,  -0.6,  62,   2.7,   4.7,   6.8,   0.5,  0.00, 
 04/12/01, 07:00,  -0.4,  64,   2.6,   4.6,   6.7,   0.0,  0.00, 
 04/12/01, 08:00,   1.2,  60,   2.5,   4.5,   6.9,   0.0,  0.23, 
 04/12/01, 09:00,   2.8,  57,   2.5,   4.5,   6.9,   0.0,  0.76, 
 04/12/01, 10:00,   3.4,  58,   2.4,   4.4,   6.8,   0.0,  1.53, 
 04/12/01, 11:00,   3.5,  61,   2.5,   4.3,   6.6,   0.0,  1.91, 
 04/12/01, 12:00,   4.0,  59,   2.6,   4.3,   6.6,   0.0,  2.06, 
 04/12/01, 13:00,   4.6,  58,   2.9,   4.4,   6.8,   0.0,  1.90, 
 04/12/01, 14:00,   4.5,  58,   3.1,   4.3,   6.8,   0.0,  1.41, 
 04/12/01, 15:00,   3.6,  64,   3.4,   4.3,   6.8,   0.0,  0.84, 
 04/12/01, 16:00,   2.6,  73,   3.6,   4.2,   6.8,   0.0,  0.36, 
 04/12/01, 17:00,   1.4,  80,   3.5,   4.3,   6.6,   0.0,  0.02, 
 04/12/01, 18:00,   0.3,  84,   3.5,   4.3,   6.7,   0.0,  0.00, 
 04/12/01, 19:00,  -0.2,  81,   3.4,   4.4,   6.7,   0.0,  0.00, 
 04/12/01, 20:00,  -0.8,  80,   3.3,   4.4,   6.7,   0.0,  0.00, 
 04/12/01, 21:00,   0.3,  73,   3.2,   4.4,   6.7,   0.0,  0.00, 
 04/12/01, 22:00,  -0.3,  75,   3.1,   4.4,   6.7,   0.5,  0.00, 
 04/12/01, 23:00,  -1.1,  81,   2.9,   4.4,   6.6,   0.0,  0.00, 
 04/12/02, 00:00,  -0.2,  80,   2.8,   4.4,   6.6,   0.5,  0.00, 
 04/12/02, 01:00,   0.2,  86,   2.7,   4.3,   6.6,   0.0,  0.00, 
 04/12/02, 02:00,  -0.2,  86,   2.6,   4.3,   6.5,   0.0,  0.00, 
 04/12/02, 03:00,  -0.3,  80,   2.6,   4.2,   6.4,   0.0,  0.00, 
 04/12/02, 04:00,  -1.1,  85,   2.5,   4.2,   6.4,   0.5,  0.00, 
 04/12/02, 05:00,  -0.4,  96,   2.4,   4.2,   6.5,   0.0,  0.00, 
 04/12/02, 06:00,  -0.1,  91,   2.3,   4.1,   6.5,   0.0,  0.00, 
 04/12/02, 07:00,  -0.3,  89,   2.3,   4.1,   6.4,   0.0,  0.00, 
 04/12/02, 08:00,  -0.3,  86,   2.2,   4.0,   6.2,   0.5,  0.19, 
 04/12/02, 09:00,   1.5,  80,   2.2,   4.0,   6.4,   0.0,  1.19, 
 04/12/02, 10:00,   2.0,  74,   2.2,   4.0,   6.4,   0.0,  1.64, 
 04/12/02, 11:00,   1.9,  77,   2.3,   4.0,   6.3,   0.0,  1.88, 
 04/12/02, 12:00,   2.7,  71,   2.5,   4.0,   6.5,   0.0,  2.06, 
 04/12/02, 13:00,   3.8,  62,   2.6,   4.0,   6.5,   0.0,  1.99, 
 04/12/02, 14:00,   3.1,  67,   2.9,   4.0,   6.4,   0.0,  1.37, 
 04/12/02, 15:00,   2.8,  68,   3.2,   4.0,   6.4,   0.0,  0.74, 
 04/12/02, 16:00,   1.6,  76,   3.3,   4.0,   6.3,   0.0,  0.17, 
 04/12/02, 17:00,   0.0,  85,   3.2,   4.0,   6.3,   0.0,  0.02, 
 04/12/02, 18:00,  -1.3,  90,   3.1,   4.0,   6.3,   0.0,  0.00, 
 04/12/02, 19:00,  -0.8,  88,   3.0,   4.0,   6.3,   0.0,  0.00, 
 04/12/02, 20:00,  -1.8,  95,   2.9,   4.1,   6.3,   0.0,  0.00, 
 04/12/02, 21:00,  -0.9,  88,   2.8,   4.1,   6.3,   0.0,  0.00, 
 04/12/02, 22:00,  -1.0,  78,   2.7,   4.1,   6.3,   0.0,  0.00, 
 04/12/02, 23:00,  -0.7,  62,   2.6,   4.0,   6.2,   0.0,  0.00, 
 04/12/03, 00:00,  -0.7,  55,   2.4,   4.0,   6.2,   0.5,  0.00, 
 04/12/03, 01:00,  -1.0,  49,   2.3,   4.0,   6.1,   0.0,  0.00, 
 04/12/03, 02:00,   2.1,  61,   2.2,   4.0,   6.2,   0.5,  0.00, 
 04/12/03, 03:00,   2.5,  79,   2.1,   3.9,   6.2,   0.0,  0.00, 
 04/12/03, 04:00,   3.1,  78,   2.1,   4.0,   6.2,   0.0,  0.00, 
 04/12/03, 05:00,   3.0,  79,   2.0,   3.8,   6.1,   0.0,  0.00, 
 04/12/03, 06:00,   3.4,  76,   2.0,   3.8,   6.1,   0.0,  0.00, 
 04/12/03, 07:00,   2.8,  78,   1.9,   3.7,   6.1,   0.0,  0.00, 
 04/12/03, 08:00,   3.8,  76,   1.9,   3.7,   6.2,   0.0,  0.09, 
 04/12/03, 09:00,   3.9,  81,   1.9,   3.6,   6.2,   0.0,  0.26, 
 04/12/03, 10:00,   4.8,  76,   1.9,   3.6,   6.1,   0.0,  0.59, 
 04/12/03, 11:00,   5.9,  70,   2.1,   3.6,   6.1,   0.0,  0.89, 
 04/12/03, 12:00,   6.0,  73,   2.4,   3.7,   6.2,   0.0,  0.75, 
 04/12/03, 13:00,   6.3,  72,   2.7,   3.7,   6.2,   0.0,  0.73, 
 04/12/03, 14:00,   6.5,  72,   3.1,   3.7,   6.2,   0.0,  0.69, 
 04/12/03, 15:00,   6.4,  74,   3.4,   3.7,   6.2,   0.0,  0.55, 
 04/12/03, 16:00,   6.1,  76,   3.6,   3.8,   6.2,   0.0,  0.25, 
 04/12/03, 17:00,   5.5,  82,   3.7,   3.9,   6.1,   0.0,  0.01, 
 04/12/03, 18:00,   5.1,  87,   3.7,   3.9,   6.1,   0.0,  0.00, 
 04/12/03, 19:00,   3.5,  93,   3.7,   4.0,   5.9,   0.0,  0.00, 
 04/12/03, 20:00,   3.8,  92,   3.6,   4.1,   6.1,   0.0,  0.00, 
 04/12/03, 21:00,   4.1,  90,   3.5,   4.1,   5.9,   0.0,  0.00, 
 04/12/03, 22:00,   4.4,  88,   3.4,   4.1,   6.1,   0.0,  0.00, 
 04/12/03, 23:00,   4.1,  89,   3.3,   4.2,   6.0,   0.0,  0.00, 
 04/12/04, 00:00,   4.1,  90,   3.3,   4.1,   5.9,   0.0,  0.00, 
 04/12/04, 01:00,   4.2,  88,   3.2,   4.2,   6.1,   0.0,  0.00, 
 04/12/04, 02:00,   3.9,  85,   3.1,   4.2,   6.1,   0.0,  0.00, 
 04/12/04, 03:00,   4.7,  78,   3.1,   4.2,   6.1,   0.0,  0.00, 
 04/12/04, 04:00,   4.9,  87,   3.0,   4.1,   6.1,   0.0,  0.00, 
 04/12/04, 05:00,   5.0,  88,   3.0,   4.0,   6.1,   0.0,  0.00, 
 04/12/04, 06:00,   5.5,  85,   3.0,   4.1,   6.1,   0.0,  0.00, 
 04/12/04, 07:00,   5.8,  84,   3.0,   4.1,   6.1,   0.0,  0.00, 
 04/12/04, 08:00,   6.7,  78,   3.0,   4.1,   6.1,   0.0,  0.15, 
 04/12/04, 09:00,   7.5,  76,   3.1,   4.1,   6.1,   0.0,  0.49, 
 04/12/04, 10:00,   7.3,  81,   3.2,   4.1,   6.1,   0.0,  0.65, 
 04/12/04, 11:00,   9.3,  79,   3.5,   4.1,   6.1,   0.0,  0.99, 
 04/12/04, 12:00,   9.9,  77,   3.9,   4.1,   6.1,   0.0,  1.27, 
 04/12/04, 13:00,  10.0,  77,   4.2,   4.1,   6.1,   0.0,  0.90, 
 04/12/04, 14:00,   9.7,  80,   4.6,   4.2,   6.1,   0.0,  0.42, 
 04/12/04, 15:00,   9.8,  76,   4.9,   4.3,   6.1,   0.0,  0.18, 
 04/12/04, 16:00,   9.7,  74,   5.0,   4.4,   6.1,   0.0,  0.03, 
 04/12/04, 17:00,   7.3,  98,   5.1,   4.5,   6.0,   0.0,  0.00, 
 04/12/04, 18:00,   6.6,  99,   5.2,   4.6,   6.1,   0.0,  0.00, 
 04/12/04, 19:00,   8.9,  97,   5.2,   4.7,   6.0,   0.0,  0.00, 
 04/12/04, 20:00,   9.8,  86,   5.2,   4.8,   5.9,   0.0,  0.00, 
 04/12/04, 21:00,   9.7,  88,   5.3,   4.8,   5.9,   0.0,  0.00, 
 04/12/04, 22:00,   9.7,  91,   5.4,   4.9,   6.1,   0.0,  0.00, 
 04/12/04, 23:00,   9.6,  99,   5.5,   5.0,   6.1,   1.0,  0.00, 
 04/12/05, 00:00,  11.6,  96,   5.7,   5.1,   6.1,   4.5,  0.00, 
 04/12/05, 01:00,  13.6,  99,   5.9,   5.1,   6.1,   1.5,  0.00, 
 04/12/05, 02:00,  14.2,  99,   6.1,   5.2,   6.2,   5.0,  0.00, 
 04/12/05, 03:00,  15.2,  99,   6.6,   5.3,   5.9,   6.0,  0.00, 
 04/12/05, 04:00,  15.3,  99,   7.1,   5.5,   5.9,   9.5,  0.00, 
 04/12/05, 05:00,  15.5,  99,   7.9,   5.7,   5.9,   8.0,  0.00, 
 04/12/05, 06:00,  12.4,  99,   8.5,   6.0,   5.9,   5.5,  0.00, 
 04/12/05, 07:00,   9.2,  99,   8.7,   6.2,   5.9,   2.0,  0.00, 
 04/12/05, 08:00,   8.8,  99,   8.7,   6.5,   6.0,   0.0,  0.05, 
 04/12/05, 09:00,   9.0,  99,   8.7,   6.6,   6.1,   0.0,  0.20, 
 04/12/05, 10:00,   8.4,  99,   8.6,   6.8,   6.1,   0.0,  0.18, 
 04/12/05, 11:00,   8.7,  94,   8.6,   6.9,   6.2,   0.0,  0.72, 
 04/12/05, 12:00,   6.1,  99,   8.6,   7.0,   6.1,   0.0,  0.47, 
 04/12/05, 13:00,   5.3,  99,   8.6,   7.2,   6.2,   0.0,  0.17, 
 04/12/05, 14:00,   3.6,  99,   8.5,   7.2,   6.2,   1.5,  0.14, 
 04/12/05, 15:00,   2.4,  99,   8.3,   7.2,   6.4,   0.5,  0.25, 
 04/12/05, 16:00,   1.6,  99,   8.1,   7.3,   6.4,   1.0,  0.05, 
 04/12/05, 17:00,   0.7,  99,   7.8,   7.3,   6.5,   1.0,  0.00, 
 04/12/05, 18:00,  -0.3,  99,   7.5,   7.3,   6.5,   1.0,  0.00, 
 04/12/05, 19:00,  -0.7,  99,   7.3,   7.3,   6.6,   1.0,  0.00, 
 04/12/05, 20:00,  -0.9,  99,   7.0,   7.3,   6.6,   0.5,  0.00, 
 04/12/05, 21:00,  -1.2,  99,   6.7,   7.2,   6.7,   0.5,  0.00, 
 04/12/05, 22:00,  -1.6,  99,   6.5,   7.2,   6.7,   0.5,  0.00, 
 04/12/05, 23:00,  -1.7,  99,   6.2,   7.1,   6.7,   0.0,  0.00, 
 04/12/06, 00:00,  -1.9,  99,   6.1,   7.0,   6.8,   0.0,  0.00, 
 04/12/06, 01:00,  -2.1,  99,   5.9,   6.9,   6.8,   0.0,  0.00, 
 04/12/06, 02:00,  -2.4,  99,   5.8,   6.8,   6.8,   0.0,  0.00, 
 04/12/06, 03:00,  -2.6,  99,   5.7,   6.8,   6.9,   0.0,  0.00, 
 04/12/06, 04:00,  -2.8,  99,   5.5,   6.7,   6.9,   0.0,  0.00, 
 04/12/06, 05:00,  -3.5,  99,   5.4,   6.6,   6.9,   0.0,  0.00, 
 04/12/06, 06:00,  -3.9,  99,   5.3,   6.5,   6.9,   0.0,  0.00, 
 04/12/06, 07:00,  -4.2,  99,   5.3,   6.5,   6.9,   0.5,  0.00, 
 04/12/06, 08:00,  -4.1,  98,   5.2,   6.3,   6.9,   0.0,  0.05, 
 04/12/06, 09:00,  -3.8,  98,   5.1,   6.2,   7.0,   0.0,  0.21, 
 04/12/06, 10:00,  -3.5,  98,   5.0,   6.2,   7.0,   0.0,  0.32, 
 04/12/06, 11:00,  -2.7,  94,   5.0,   6.2,   7.0,   0.0,  0.72, 
 04/12/06, 12:00,  -1.7,  90,   5.0,   6.1,   7.0,   0.0,  2.09, 
 04/12/06, 13:00,  -1.0,  83,   4.9,   6.1,   7.0,   0.0,  2.08, 
 04/12/06, 14:00,  -1.6,  91,   4.9,   6.0,   7.0,   0.0,  1.24, 
 04/12/06, 15:00,  -1.8,  97,   4.8,   6.0,   7.0,  12.0,  0.57, 
 04/12/06, 16:00,  -1.8,  97,   4.8,   5.9,   7.0,   0.0,  0.24, 
 04/12/06, 17:00,  -2.2,  96,   4.7,   5.9,   7.0,   0.0,  0.02, 
 04/12/06, 18:00,  -3.0,  93,   4.6,   5.8,   7.0,   0.0,  0.00, 
 04/12/06, 19:00,  -4.6,  97,   4.5,   5.8,   6.9,   0.0,  0.00, 
 04/12/06, 20:00,  -4.7,  93,   4.4,   5.6,   6.8,   0.0,  0.00, 
 04/12/06, 21:00,  -3.2,  74,   4.4,   5.6,   6.9,   0.0,  0.00, 
 04/12/06, 22:00,  -3.1,  75,   4.3,   5.6,   6.8,   0.0,  0.00, 
 04/12/06, 23:00,  -2.9,  72,   4.3,   5.6,   6.8,   0.0,  0.00, 
 04/12/07, 00:00,  -1.8,  63,   4.2,   5.5,   6.8,   0.0,  0.00, 
 04/12/07, 01:00,  -1.2,  54,   4.2,   5.4,   6.8,   0.0,  0.00, 
 04/12/07, 02:00,  -0.2,  46,   4.2,   5.4,   6.9,   0.0,  0.00, 
 04/12/07, 03:00,  -3.2,  70,   4.1,   5.3,   6.8,   0.0,  0.00, 
 04/12/07, 04:00,  -2.3,  62,   4.1,   5.3,   6.7,   0.0,  0.00, 
 04/12/07, 05:00,  -3.1,  69,   4.0,   5.3,   6.8,   0.0,  0.00, 
 04/12/07, 06:00,  -2.8,  75,   4.0,   5.2,   6.6,   0.0,  0.00, 
 04/12/07, 07:00,  -2.9,  84,   4.0,   5.2,   6.7,   0.0,  0.00, 
 04/12/07, 08:00,  -0.6,  64,   3.9,   5.2,   6.8,   0.0,  0.17, 
 04/12/07, 09:00,   0.3,  78,   3.9,   5.1,   6.8,   0.0,  0.60, 
 04/12/07, 10:00,   1.0,  76,   3.9,   5.2,   6.7,   0.0,  0.93, 
 04/12/07, 11:00,   1.5,  79,   3.9,   5.2,   6.8,   0.0,  0.81, 
 04/12/07, 12:00,   1.8,  81,   3.8,   5.1,   6.7,   0.0,  0.76, 
 04/12/07, 13:00,   1.9,  77,   3.8,   5.1,   6.7,   0.0,  0.60, 
 04/12/07, 14:00,   2.6,  71,   3.8,   5.1,   6.7,   0.0,  0.97, 
 04/12/07, 15:00,   1.9,  79,   3.8,   5.0,   6.7,   0.0,  0.23, 
 04/12/07, 16:00,   2.1,  75,   3.7,   4.9,   6.7,   0.0,  0.09, 
 04/12/07, 17:00,   2.1,  76,   3.7,   5.0,   6.6,   0.0,  0.05, 
 04/12/07, 18:00,   2.1,  74,   3.7,   4.9,   6.7,   0.0,  0.00, 
 04/12/07, 19:00,   1.3,  89,   3.6,   4.8,   6.6,   0.0,  0.00, 
 04/12/07, 20:00,   1.2,  95,   3.6,   4.8,   6.4,   0.0,  0.00, 
 04/12/07, 21:00,   0.9,  97,   3.6,   4.8,   6.5,   0.0,  0.00, 
 04/12/07, 22:00,   0.5,  99,   3.5,   4.8,   6.6,   0.0,  0.00, 
 04/12/07, 23:00,   1.0,  97,   3.5,   4.7,   6.6,   0.0,  0.00, 
 04/12/08, 00:00,   1.0,  96,   3.5,   4.7,   6.6,   0.0,  0.00, 
 04/12/08, 01:00,   1.3,  91,   3.5,   4.7,   6.6,   0.0,  0.00, 
 04/12/08, 02:00,   1.4,  92,   3.4,   4.7,   6.4,   0.0,  0.00, 
 04/12/08, 03:00,   1.4,  92,   3.4,   4.6,   6.4,   0.0,  0.00, 
 04/12/08, 04:00,   0.7,  99,   3.4,   4.6,   6.4,   0.0,  0.00, 
 04/12/08, 05:00,   0.0,  99,   3.4,   4.6,   6.4,   0.0,  0.00, 
 04/12/08, 06:00,  -0.9,  99,   3.4,   4.6,   6.4,   0.0,  0.00, 
 04/12/08, 07:00,  -1.3,  99,   3.3,   4.5,   6.4,   0.0,  0.00, 
 04/12/08, 08:00,   0.4,  90,   3.3,   4.5,   6.4,   0.5,  0.22, 
 04/12/08, 09:00,   1.8,  83,   3.3,   4.5,   6.2,   0.0,  1.26, 
 04/12/08, 10:00,   0.9,  99,   3.3,   4.5,   6.2,   0.0,  1.60, 
 04/12/08, 11:00,   2.0,  93,   3.3,   4.6,   6.4,   0.0,  1.90, 
 04/12/08, 12:00,   2.0,  88,   3.4,   4.5,   6.4,   0.0,  1.90, 
 04/12/08, 13:00,   2.6,  86,   3.3,   4.5,   6.4,   0.0,  1.36, 
 04/12/08, 14:00,   2.3,  82,   3.4,   4.4,   6.3,   0.0,  1.50, 
 04/12/08, 15:00,   2.9,  79,   3.4,   4.4,   6.3,   0.0,  0.76, 
 04/12/08, 16:00,   2.2,  75,   3.4,   4.4,   6.2,   0.0,  0.19, 
 04/12/08, 17:00,   1.0,  72,   3.4,   4.4,   6.2,   0.0,  0.01, 
 04/12/08, 18:00,   0.8,  73,   3.3,   4.4,   6.2,   0.0,  0.00, 
 04/12/08, 19:00,  -0.4,  78,   3.3,   4.3,   6.2,   0.0,  0.00, 
 04/12/08, 20:00,  -0.5,  77,   3.2,   4.3,   6.2,   0.0,  0.00, 
 04/12/08, 21:00,  -0.4,  75,   3.1,   4.3,   6.2,   0.0,  0.00, 
 04/12/08, 22:00,   0.8,  63,   3.1,   4.3,   6.2,   0.0,  0.00, 
 04/12/08, 23:00,  -0.4,  70,   3.0,   4.3,   6.1,   0.0,  0.00, 
 04/12/09, 00:00,  -1.3,  74,   2.9,   4.2,   6.1,   0.0,  0.00, 
 04/12/09, 01:00,  -2.1,  80,   2.8,   4.2,   6.1,   0.0,  0.00, 
 04/12/09, 02:00,  -2.1,  81,   2.7,   4.2,   6.1,   0.0,  0.00, 
 04/12/09, 03:00,  -0.8,  69,   2.6,   4.1,   6.1,   0.0,  0.00, 
 04/12/09, 04:00,  -3.0,  87,   2.6,   4.1,   6.1,   0.0,  0.00, 
 04/12/09, 05:00,  -2.9,  85,   2.4,   4.1,   6.1,   0.0,  0.00, 
 04/12/09, 06:00,  -3.2,  87,   2.3,   4.0,   6.0,   0.0,  0.00, 
 04/12/09, 07:00,  -2.9,  84,   2.3,   4.0,   6.0,   0.0,  0.00, 
 04/12/09, 08:00,  -1.6,  79,   2.1,   3.9,   6.0,   0.0,  0.16, 
 04/12/09, 09:00,   2.0,  69,   2.1,   3.9,   6.0,   0.0,  0.95, 
 04/12/09, 10:00,   4.8,  53,   2.1,   3.9,   6.0,   0.0,  1.51, 
 04/12/09, 11:00,   4.9,  56,   2.0,   3.9,   6.0,   0.0,  1.90, 
 04/12/09, 12:00,   4.8,  61,   2.0,   3.9,   6.0,   0.0,  1.87, 
 04/12/09, 13:00,   5.4,  63,   2.0,   3.8,   6.1,   0.0,  1.62, 
 04/12/09, 14:00,   6.5,  61,   2.0,   3.8,   6.0,   0.0,  1.46, 
 04/12/09, 15:00,   5.4,  66,   2.1,   3.7,   5.9,   0.0,  0.60, 
 04/12/09, 16:00,   5.1,  68,   2.1,   3.7,   5.9,   0.0,  0.21, 
 04/12/09, 17:00,   3.8,  78,   2.2,   3.6,   5.9,   0.0,  0.01, 
 04/12/09, 18:00,   2.4,  86,   2.2,   3.6,   5.9,   0.0,  0.00, 
 04/12/09, 19:00,   0.7,  93,   2.2,   3.5,   5.8,   0.0,  0.00, 
 04/12/09, 20:00,   1.0,  92,   2.2,   3.5,   5.8,   0.0,  0.00, 
 04/12/09, 21:00,   0.4,  81,   2.2,   3.5,   5.8,   0.0,  0.00, 
 04/12/09, 22:00,   0.7,  76,   2.1,   3.5,   5.8,   0.0,  0.00, 
 04/12/09, 23:00,   2.4,  67,   2.1,   3.5,   5.8,   0.0,  0.00, 
 04/12/10, 00:00,   0.4,  70,   2.0,   3.5,   5.7,   0.0,  0.00, 
 04/12/10, 01:00,   2.2,  73,   2.0,   3.5,   5.7,   0.0,  0.00, 
 04/12/10, 02:00,   1.6,  82,   2.0,   3.5,   5.7,   0.0,  0.00, 
 04/12/10, 03:00,   2.3,  83,   1.9,   3.4,   5.7,   0.0,  0.00, 
 04/12/10, 04:00,   2.5,  78,   1.9,   3.4,   5.7,   0.0,  0.00, 
 04/12/10, 05:00,   4.2,  65,   1.8,   3.4,   5.5,   0.0,  0.00, 
 04/12/10, 06:00,   3.4,  63,   1.8,   3.4,   5.7,   0.0,  0.00, 
 04/12/10, 07:00,   4.7,  61,   1.7,   3.3,   5.6,   0.0,  0.00, 
 04/12/10, 08:00,   4.6,  74,   1.7,   3.3,   5.6,   0.0,  0.07, 
 04/12/10, 09:00,   7.1,  65,   1.7,   3.3,   5.6,   0.5,  0.83, 
 04/12/10, 10:00,   7.9,  51,   1.7,   3.3,   5.6,   0.0,  1.46, 
 04/12/10, 11:00,   8.2,  49,   1.7,   3.2,   5.6,   0.0,  1.84, 
 04/12/10, 12:00,   8.1,  54,   1.7,   3.2,   5.7,   0.0,  1.90, 
 04/12/10, 13:00,   8.9,  55,   1.8,   3.2,   5.6,   0.0,  1.83, 
 04/12/10, 14:00,   9.1,  58,   2.0,   3.2,   5.5,   0.0,  1.27, 
 04/12/10, 15:00,   8.3,  58,   2.3,   3.2,   5.5,   0.0,  0.92, 
 04/12/10, 16:00,   7.9,  57,   2.4,   3.2,   5.5,   0.0,  0.15, 
 04/12/10, 17:00,   5.2,  70,   2.4,   3.2,   5.5,   0.0,  0.03, 
 04/12/10, 18:00,   4.4,  70,   2.4,   3.2,   5.5,   0.0,  0.00, 
 04/12/10, 19:00,   3.0,  78,   2.4,   3.2,   5.5,   0.0,  0.00, 
 04/12/10, 20:00,   2.9,  76,   2.3,   3.3,   5.4,   0.0,  0.00, 
 04/12/10, 21:00,   2.9,  73,   2.3,   3.3,   5.4,   0.0,  0.00, 
 04/12/10, 22:00,   3.5,  62,   2.3,   3.3,   5.4,   0.0,  0.00, 
 04/12/10, 23:00,   4.0,  58,   2.2,   3.3,   5.4,   0.0,  0.00, 
 04/12/11, 00:00,   3.7,  56,   2.2,   3.3,   5.4,   0.0,  0.00, 
 04/12/11, 01:00,   3.6,  57,   2.1,   3.3,   5.4,   0.0,  0.00, 
 04/12/11, 02:00,   3.4,  60,   2.1,   3.3,   5.4,   0.0,  0.00, 
 04/12/11, 03:00,   3.3,  66,   2.0,   3.3,   5.4,   0.0,  0.00, 
 04/12/11, 04:00,   3.1,  66,   2.0,   3.3,   5.4,   0.0,  0.00, 
 04/12/11, 05:00,   3.9,  64,   2.0,   3.2,   5.3,   0.0,  0.00, 
 04/12/11, 06:00,   2.1,  83,   1.9,   3.2,   5.3,   0.0,  0.00, 
 04/12/11, 07:00,   1.1,  98,   1.9,   3.2,   5.3,   0.0,  0.00, 
 04/12/11, 08:00,   1.7,  92,   1.9,   3.2,   5.3,   0.0,  0.05, 
 04/12/11, 09:00,   3.6,  86,   1.9,   3.2,   5.3,   0.0,  0.86, 
 04/12/11, 10:00,   4.8,  73,   2.0,   3.2,   5.3,   0.0,  1.38, 
 04/12/11, 11:00,   4.2,  75,   2.2,   3.3,   5.3,   0.0,  1.40, 
 04/12/11, 12:00,   2.2,  97,   2.4,   3.1,   5.3,   0.0,  0.96, 
 04/12/11, 13:00,   3.1,  82,   2.6,   3.2,   5.3,   0.0,  1.21, 
 04/12/11, 14:00,   3.0,  85,   2.9,   3.2,   5.3,   0.0,  0.61, 
 04/12/11, 15:00,   3.2,  66,   3.0,   3.2,   5.3,   0.0,  0.55, 
 04/12/11, 16:00,   2.4,  64,   3.0,   3.3,   5.2,   0.0,  0.14, 
 04/12/11, 17:00,   0.8,  84,   2.9,   3.3,   5.2,   0.0,  0.02, 
 04/12/11, 18:00,  -0.8,  91,   2.8,   3.4,   5.2,   0.0,  0.00, 
 04/12/11, 19:00,  -1.6,  98,   2.7,   3.4,   5.2,   0.0,  0.00, 
 04/12/11, 20:00,  -1.1,  95,   2.5,   3.4,   5.2,   0.0,  0.00, 
 04/12/11, 21:00,  -2.1,  99,   2.4,   3.4,   5.2,   0.0,  0.00, 
 04/12/11, 22:00,  -2.1,  99,   2.3,   3.4,   5.2,   0.0,  0.00, 
 04/12/11, 23:00,  -2.3,  99,   2.3,   3.4,   5.2,   0.0,  0.00, 
 04/12/12, 00:00,  -3.1,  98,   2.2,   3.4,   5.2,   0.0,  0.00, 
 04/12/12, 01:00,  -3.1,  96,   2.0,   3.4,   5.2,   0.0,  0.00, 
 04/12/12, 02:00,  -0.4,  46,   1.9,   3.4,   5.2,   0.0,  0.00, 
 04/12/12, 03:00,  -0.3,  38,   1.9,   3.3,   5.2,   0.0,  0.00, 
 04/12/12, 04:00,  -0.6,  41,   1.7,   3.3,   5.2,   0.0,  0.00, 
 04/12/12, 05:00,   1.8,  78,   1.8,   3.2,   5.2,   0.0,  0.00, 
 04/12/12, 06:00,   1.5,  88,   1.6,   3.2,   5.2,   0.0,  0.00, 
 04/12/12, 07:00,   2.1,  82,   1.5,   3.2,   5.2,   0.0,  0.00, 
 04/12/12, 08:00,   3.0,  79,   1.5,   3.1,   5.2,   0.0,  0.14, 
 04/12/12, 09:00,   5.1,  69,   1.5,   3.1,   5.2,   0.0,  0.81, 
 04/12/12, 10:00,   6.8,  58,   1.5,   3.1,   5.2,   0.0,  1.41, 
 04/12/12, 11:00,   6.4,  59,   1.5,   3.0,   5.1,   0.0,  1.63, 
 04/12/12, 12:00,   6.9,  67,   1.5,   3.0,   5.1,   0.0,  1.27, 
 04/12/12, 13:00,   7.6,  59,   1.7,   2.9,   4.9,   0.0,  1.44, 
 04/12/12, 14:00,   7.1,  62,   2.0,   2.9,   5.1,   0.0,  1.13, 
 04/12/12, 15:00,   6.8,  67,   2.4,   2.9,   5.1,   0.0,  0.61, 
 04/12/12, 16:00,   5.5,  73,   2.6,   3.0,   5.1,   0.0,  0.36, 
 04/12/12, 17:00,   4.9,  75,   2.7,   3.0,   5.1,   0.0,  0.01, 
 04/12/12, 18:00,   4.5,  80,   2.8,   3.1,   5.1,   0.0,  0.00, 
 04/12/12, 19:00,   4.7,  82,   2.8,   3.1,   5.1,   0.0,  0.00, 
 04/12/12, 20:00,   4.3,  89,   2.8,   3.2,   5.1,   0.0,  0.00, 
 04/12/12, 21:00,   3.9,  96,   2.8,   3.2,   5.1,   0.0,  0.00, 
 04/12/12, 22:00,   3.2,  90,   2.8,   3.3,   4.9,   0.0,  0.00, 
 04/12/12, 23:00,   2.5,  99,   2.8,   3.3,   4.9,   0.0,  0.00, 
 04/12/13, 00:00,   1.9,  99,   2.8,   3.3,   4.9,   0.0,  0.00, 
 04/12/13, 01:00,   1.5,  99,   2.8,   3.4,   4.9,   0.0,  0.00, 
 04/12/13, 02:00,   1.2,  99,   2.8,   3.4,   5.0,   0.0,  0.00, 
 04/12/13, 03:00,   1.7,  97,   2.8,   3.4,   5.0,   0.0,  0.00, 
 04/12/13, 04:00,   1.4,  97,   2.7,   3.4,   4.9,   0.0,  0.00, 
 04/12/13, 05:00,   1.4,  96,   2.7,   3.5,   4.9,   0.0,  0.00, 
 04/12/13, 06:00,   0.7,  99,   2.7,   3.5,   5.0,   0.5,  0.00, 
 04/12/13, 07:00,   0.7,  99,   2.6,   3.5,   5.0,   0.0,  0.00, 
 04/12/13, 08:00,   0.4,  99,   2.6,   3.5,   5.0,   0.0,  0.01, 
 04/12/13, 09:00,   1.7,  97,   2.5,   3.4,   5.0,   0.0,  0.50, 
 04/12/13, 10:00,   2.6,  85,   2.6,   3.4,   5.0,   0.0,  1.38, 
 04/12/13, 11:00,   2.7,  78,   2.7,   3.4,   5.0,   0.5,  1.66, 
 04/12/13, 12:00,   3.1,  80,   2.9,   3.4,   5.0,   0.0,  1.38, 
 04/12/13, 13:00,   2.2,  85,   3.0,   3.4,   5.0,   0.0,  0.73, 
 04/12/13, 14:00,   1.8,  85,   3.1,   3.5,   5.0,   0.0,  0.78, 
 04/12/13, 15:00,   2.0,  81,   3.2,   3.5,   4.9,   0.0,  0.65, 
 04/12/13, 16:00,   1.6,  87,   3.3,   3.5,   5.0,   0.0,  0.27, 
 04/12/13, 17:00,   0.0,  97,   3.4,   3.6,   5.0,   0.0,  0.02, 
 04/12/13, 18:00,  -0.7,  99,   3.3,   3.6,   5.0,   0.0,  0.00, 
 04/12/13, 19:00,  -1.1,  96,   3.3,   3.6,   5.0,   0.0,  0.00, 
 04/12/13, 20:00,  -1.5,  99,   3.2,   3.7,   5.0,   0.0,  0.00, 
 04/12/13, 21:00,  -1.8,  99,   3.1,   3.7,   5.0,   0.0,  0.00, 
 04/12/13, 22:00,  -2.2,  99,   2.9,   3.7,   4.9,   0.0,  0.00, 
 04/12/13, 23:00,  -2.2,  99,   2.9,   3.7,   5.0,   0.0,  0.00, 
 04/12/14, 00:00,  -2.4,  99,   2.9,   3.7,   5.0,   0.0,  0.00, 
 04/12/14, 01:00,  -3.0,  96,   2.7,   3.7,   5.1,   0.0,  0.00, 
 04/12/14, 02:00,  -3.1,  95,   2.6,   3.6,   5.1,   0.0,  0.00, 
 04/12/14, 03:00,  -3.8,  96,   2.5,   3.6,   5.1,   0.0,  0.00, 
 04/12/14, 04:00,  -4.3,  97,   2.5,   3.6,   5.1,   0.0,  0.00, 
 04/12/14, 05:00,  -3.6,  83,   2.3,   3.6,   5.1,   0.0,  0.00, 
 04/12/14, 06:00,  -5.2,  89,   2.2,   3.5,   5.1,   0.0,  0.00, 
 04/12/14, 07:00,  -4.8,  78,   2.1,   3.5,   5.1,   0.0,  0.00, 
 04/12/14, 08:00,  -3.7,  67,   2.0,   3.5,   5.1,   0.0,  0.15, 
 04/12/14, 09:00,   0.7,  42,   1.9,   3.4,   5.1,   0.0,  1.02, 
 04/12/14, 10:00,   1.8,  51,   1.9,   3.4,   5.1,   0.0,  1.50, 
 04/12/14, 11:00,   5.4,  57,   1.8,   3.3,   5.0,   0.0,  1.79, 
 04/12/14, 12:00,   5.6,  60,   1.8,   3.3,   5.0,   0.0,  1.97, 
 04/12/14, 13:00,   6.2,  58,   1.7,   3.2,   5.1,   0.0,  1.95, 
 04/12/14, 14:00,   5.7,  55,   1.9,   3.2,   5.0,   0.0,  1.54, 
 04/12/14, 15:00,   5.2,  54,   2.1,   3.1,   5.0,   0.0,  0.95, 
 04/12/14, 16:00,   4.4,  55,   2.2,   3.1,   5.0,   0.0,  0.14, 
 04/12/14, 17:00,   2.7,  64,   2.3,   3.1,   5.0,   0.0,  0.02, 
 04/12/14, 18:00,   2.0,  64,   2.2,   3.1,   5.0,   0.0,  0.00, 
 04/12/14, 19:00,   0.9,  73,   2.2,   3.1,   5.0,   0.0,  0.00, 
 04/12/14, 20:00,   0.9,  77,   2.1,   3.1,   5.0,   0.0,  0.00, 
 04/12/14, 21:00,   1.4,  80,   2.0,   3.1,   5.0,   0.0,  0.00, 
 04/12/14, 22:00,   0.8,  85,   2.0,   3.1,   5.0,   0.0,  0.00, 
 04/12/14, 23:00,  -0.5,  91,   1.9,   3.1,   5.0,   0.0,  0.00, 
 04/12/15, 00:00,  -0.7,  89,   1.9,   3.1,   5.0,   0.0,  0.00, 
 04/12/15, 01:00,   1.5,  38,   1.8,   3.1,   5.0,   0.0,  0.00, 
 04/12/15, 02:00,   0.7,  40,   1.7,   3.1,   4.9,   0.0,  0.00, 
 04/12/15, 03:00,   0.2,  38,   1.6,   3.0,   4.9,   0.0,  0.00, 
 04/12/15, 04:00,   0.0,  40,   1.5,   3.0,   4.9,   0.0,  0.00, 
 04/12/15, 05:00,   0.9,  34,   1.4,   3.0,   4.9,   0.0,  0.00, 
 04/12/15, 06:00,   1.3,  36,   1.4,   2.9,   4.9,   0.0,  0.00, 
 04/12/15, 07:00,   2.2,  34,   1.3,   2.9,   4.9,   0.0,  0.00, 
 04/12/15, 08:00,   5.6,  25,   1.3,   2.9,   4.9,   0.0,  0.14, 
 04/12/15, 09:00,   7.0,  33,   1.3,   2.8,   4.9,   0.0,  0.54, 
 04/12/15, 10:00,   8.1,  26,   1.3,   2.8,   4.9,   0.0,  0.77, 
 04/12/15, 11:00,   9.0,  27,   1.3,   2.8,   4.9,   0.0,  1.15, 
 04/12/15, 12:00,   7.9,  40,   1.4,   2.7,   4.9,   0.0,  1.33, 
 04/12/15, 13:00,   8.2,  39,   1.6,   2.7,   4.9,   0.0,  1.49, 
 04/12/15, 14:00,   8.4,  38,   1.9,   2.8,   4.9,   0.0,  1.26, 
 04/12/15, 15:00,   8.0,  35,   2.2,   2.7,   4.9,   0.0,  0.71, 
 04/12/15, 16:00,   7.0,  39,   2.4,   2.7,   4.9,   0.0,  0.22, 
 04/12/15, 17:00,   4.1,  48,   2.5,   2.8,   4.8,   0.0,  0.03, 
 04/12/15, 18:00,   3.1,  49,   2.4,   2.9,   4.8,   0.0,  0.00, 
 04/12/15, 19:00,   2.9,  45,   2.3,   2.9,   4.9,   0.0,  0.00, 
 04/12/15, 20:00,   2.9,  41,   2.3,   2.9,   4.8,   0.0,  0.00, 
 04/12/15, 21:00,   2.0,  49,   2.2,   3.0,   4.8,   0.0,  0.00, 
 04/12/15, 22:00,   2.0,  42,   2.1,   3.0,   4.7,   0.0,  0.00, 
 04/12/15, 23:00,   2.6,  37,   2.0,   3.0,   4.8,   0.0,  0.00, 
 04/12/16, 00:00,   3.1,  27,   1.9,   3.0,   4.7,   0.0,  0.00, 
 04/12/16, 01:00,   2.2,  33,   1.8,   3.0,   4.7,   0.0,  0.00, 